Tracking 19794 objects as of 21-Jul-2019
HD Live streaming from Space Station
objects crossing your sky now

FENGYUN 1C DEB

Track FENGYUN 1C DEB now!
10-day predictions


NORAD ID: 35121
Int'l Code: 1999-025DKZ
Perigee: 774.7 km
Apogee: 1,006.1 km
Inclination: 98.3 °
Period: 102.6 minutes
Semi major axis: 7261 km
RCS: 0.0043 m2 (small)
Launch date: May 10, 1999
Source: People's Republic of China (PRC)
Launch site: Taiyaun Space Center, China (TSC)

Note: This is SATELLITE DEBRIS
aabbcc
Your satellite tracking list
Your tracking list is empty




NASA's NSSDC Master Catalog

Two Line Element Set (TLE):
1 35121U 99025DKZ 19198.84751197 +.00000169 +00000-0 +11985-3 0  9990
2 35121 098.2749 225.3752 0159318 252.1862 106.1871 14.03052863282673
Source of the keplerian elements: AFSPC